FW7568 Weather Reports


time (UTC)temp
C
wind
direction
speed
KPH
gust
KPH
rain 1hr
cm
rain 24hr
cm
rain mn
cm
humidity
%
barometer
mb
20260505235159 22 90 1.6 3.2 0.00 0.03 0.03 95 1011.5
20260505234138 22 113 0.0 0.0 0.00 0.03 0.03 94 1011.5
20260505233628 22 113 0.0 0.0 0.00 0.03 0.03 94 1011.5
20260505233118 22 113 0.0 0.0 0.00 0.03 0.03 94 1011.7
20260505232058 22 113 0.0 0.0 0.00 0.03 0.03 93 1011.4
20260505231548 22 113 0.0 3.2 0.00 0.03 0.03 92 1011.5
20260505230527 22 90 0.0 0.0 0.00 0.03 0.03 91 1011.3
20260505225508 23 90 0.0 3.2 0.00 0.03 0.03 90 1011.2
20260505223427 24 68 1.6 6.4 0.00 0.03 0.03 88 1011.1
20260505222407 25 68 1.6 3.2 0.00 0.03 0.03 86 1011.1
20260505221347 25 45 1.6 3.2 0.00 0.03 0.03 86 1010.9
20260505220836 25 45 3.2 3.2 0.00 0.03 0.03 85 1011.2
20260505220326 25 23 3.2 3.2 0.00 0.03 0.03 85 1011.0
20260505214755 25 23 0.0 0.0 0.00 0.03 0.03 84 1011.4
20260505214246 25 23 0.0 0.0 0.00 0.03 0.03 83 1011.1
20260505213225 26 23 0.0 3.2 0.00 0.03 0.03 81 1010.9
20260505212715 26 23 0.0 3.2 0.00 0.03 0.03 81 1011.1
20260505212206 26 23 0.0 3.2 0.00 0.03 0.03 80 1010.9
20260505211655 26 23 0.0 6.4 0.00 0.03 0.03 79 1011.0
20260505211145 27 23 3.2 6.4 0.00 0.03 0.03 79 1011.0
20260505210634 27 23 3.2 6.4 0.00 0.03 0.03 78 1010.8
20260505210124 27 23 4.8 9.7 0.00 0.03 0.03 77 1011.1
20260505205615 27 23 4.8 9.7 0.00 0.03 0.03 77 1010.8
20260505204554 27 68 4.8 6.4 0.00 0.03 0.03 76 1010.8
20260505203535 27 23 3.2 9.7 0.00 0.03 0.03 77 1010.9
20260505202514 28 23 6.4 12.9 0.00 0.03 0.03 75 1011.2
20260505202004 28 45 6.4 12.9 0.00 0.03 0.03 74 1011.2
20260505201453 28 68 6.4 11.3 0.00 0.03 0.03 74 1011.3
20260505200434 28 23 4.8 6.4 0.00 0.03 0.03 73 1011.1
20260505195923 28 23 3.2 11.3 0.00 0.03 0.03 75 1011.2
20260505194903 28 45 4.8 11.3 0.00 0.03 0.03 74 1011.1
20260505194353 28 45 3.2 11.3 0.00 0.03 0.03 73 1011.0
20260505193843 28 23 4.8 12.9 0.00 0.03 0.03 72 1011.4
20260505192823 29 338 4.8 9.7 0.00 0.03 0.03 71 1011.2
20260505192312 28 338 3.2 11.3 0.00 0.03 0.03 72 1011.3
20260505191802 28 0 3.2 14.5 0.00 0.03 0.03 73 1011.3
20260505190742 28 23 6.4 12.9 0.00 0.03 0.03 73 1011.3
20260505190232 28 0 4.8 12.9 0.00 0.03 0.03 73 1011.3
20260505185722 28 315 6.4 14.5 0.00 0.03 0.03 73 1011.2
20260505185211 29 315 6.4 17.7 0.00 0.03 0.03 71 1011.4
20260505184701 28 0 6.4 17.7 0.00 0.03 0.03 74 1011.2
20260505184151 28 45 12.9 17.7 0.00 0.03 0.03 74 1011.4
20260505183131 28 338 9.7 17.7 0.00 0.03 0.03 73 1011.1
20260505182621 28 338 8.0 17.7 0.00 0.03 0.03 74 1011.2
20260505182111 27 338 12.9 17.7 0.00 0.03 0.03 75 1011.1
20260505181601 28 23 9.7 17.7 0.00 0.03 0.03 74 1011.3
20260505181052 28 0 11.3 17.7 0.00 0.03 0.03 74 1011.0
20260505180540 28 338 8.0 17.7 0.00 0.03 0.03 74 1011.1
20260505175520 28 23 4.8 12.9 0.00 0.03 0.03 76 1011.1
20260505175011 27 68 8.0 11.3 0.00 0.03 0.03 76 1011.1
20260505174501 27 23 4.8 14.5 0.00 0.03 0.03 76 1011.0
20260505173950 28 0 6.4 14.5 0.00 0.03 0.03 75 1011.0
20260505173440 28 45 6.4 17.7 0.00 0.03 0.03 75 1011.2
20260505172931 28 23 4.8 20.9 0.00 0.03 0.03 74 1011.0
20260505172420 28 23 11.3 20.9 0.00 0.03 0.03 75 1011.1
20260505171400 28 0 11.3 17.7 0.00 0.03 0.03 74 1011.2
20260505170850 27 23 9.7 24.1 0.00 0.03 0.03 76 1011.3
20260505164809 28 45 19.3 27.4 0.00 0.03 0.03 74 1011.6
20260505164259 28 23 8.0 25.7 0.00 0.03 0.03 73 1011.6
20260505163749 28 338 12.9 25.7 0.00 0.03 0.03 73 1011.7
20260505163244 28 0 12.9 24.1 0.00 0.03 0.03 74 1011.8
20260505162729 27 68 16.1 24.1 0.00 0.03 0.03 77 1011.7
20260505162218 27 45 14.5 17.7 0.00 0.03 0.03 77 1011.7
20260505161158 26 23 12.9 20.9 0.00 0.03 0.03 79 1012.0
20260505160138 26 45 4.8 14.5 0.00 0.03 0.03 81 1012.3
20260505153037 25 23 8.0 17.7 0.00 0.03 0.03 87 1012.8
20260505152527 25 23 6.4 14.5 0.00 0.03 0.03 87 1012.8
20260505152017 25 45 8.0 17.7 0.00 0.03 0.03 88 1013.1
20260505151513 24 90 6.4 20.9 0.00 0.03 0.03 89 1013.1
20260505150957 24 90 8.0 20.9 0.00 0.03 0.03 90 1013.0
20260505150447 24 23 3.2 14.5 0.00 0.03 0.03 92 1013.2
20260505140246 21 23 6.4 9.7 0.03 0.03 0.03 98 1013.7
20260505124514 21 68 3.2 12.9 0.00 0.00 0.00 98 1013.3
20260505124004 20 45 3.2 11.3 0.00 0.00 0.00 98 1013.5
20260505122943 20 90 6.4 12.9 0.00 0.00 0.00 98 1013.4
20260505122433 20 90 6.4 14.5 0.00 0.00 0.00 99 1013.1
20260505121923 20 23 4.8 14.5 0.00 0.00 0.00 99 1012.9
20260505121413 20 90 6.4 17.7 0.00 0.00 0.00 99 1013.0
20260505120903 20 90 8.0 17.7 0.00 0.00 0.00 99 1013.0
20260505115843 20 45 6.4 17.7 0.00 0.00 0.00 99 1012.8
20260505115332 19 90 8.0 17.7 0.00 0.00 0.00 99 1013.0
20260505114823 19 90 6.4 20.9 0.00 0.00 0.00 99 1013.1
20260505114312 19 90 9.7 20.9 0.00 0.00 0.00 99 1013.0
20260505113803 19 90 6.4 17.7 0.00 0.00 0.00 99 1013.0
20260505113253 19 90 6.4 17.7 0.00 0.00 0.00 99 1012.9
20260505112742 19 68 4.8 14.5 0.00 0.00 0.00 99 1012.9
20260505112232 18 90 8.0 14.5 0.00 0.00 0.00 99 1012.7
20260505111722 18 113 8.0 14.5 0.00 0.00 0.00 99 1012.7
20260505111212 18 90 6.4 14.5 0.00 0.00 0.00 99 1012.8
20260505110702 18 68 6.4 17.7 0.00 0.00 0.00 99 1012.9
20260505110151 18 113 6.4 17.7 0.00 0.00 0.00 99 1012.6
20260505102031 18 68 8.0 17.7 0.00 0.00 0.00 99 1012.5
20260505101521 18 68 9.7 14.5 0.00 0.00 0.00 99 1012.3
20260505101010 18 90 3.2 14.5 0.00 0.00 0.00 99 1012.2
20260505100500 18 90 4.8 14.5 0.00 0.00 0.00 99 1012.2
20260505095950 18 68 3.2 14.5 0.00 0.00 0.00 99 1012.1
20260505094930 18 90 3.2 17.7 0.00 0.00 0.00 99 1012.2
20260505094421 18 90 9.7 17.7 0.00 0.00 0.00 99 1012.0
20260505093910 18 68 11.3 14.5 0.00 0.00 0.00 99 1011.9
20260505093400 18 45 8.0 14.5 0.00 0.00 0.00 99 1012.1
20260505092849 18 90 12.9 14.5 0.00 0.00 0.00 99 1012.0
20260505092339 18 90 3.2 12.9 0.00 0.00 0.00 99 1012.0
20260505091829 18 68 8.0 12.9 0.00 0.00 0.00 99 1011.8
20260505091320 18 90 6.4 12.9 0.00 0.00 0.00 99 1012.0
20260505090809 18 113 4.8 12.9 0.00 0.00 0.00 99 1012.0
20260505090259 18 90 8.0 12.9 0.00 0.00 0.00 99 1011.8
20260505085749 18 90 3.2 12.9 0.00 0.00 0.00 99 1011.9
20260505085239 18 113 4.8 11.3 0.00 0.00 0.00 99 1011.9
20260505084218 18 90 8.0 14.5 0.00 0.00 0.00 99 1011.9
20260505083158 18 90 9.7 14.5 0.00 0.00 0.00 99 1011.8
20260505082648 18 90 6.4 14.5 0.00 0.00 0.00 99 1011.8
20260505082138 18 90 6.4 14.5 0.00 0.00 0.00 99 1012.0
20260505081628 18 90 4.8 11.3 0.00 0.00 0.00 99 1011.7
20260505081118 18 90 4.8 11.3 0.00 0.00 0.00 99 1011.9
20260505080608 18 68 4.8 12.9 0.00 0.00 0.00 99 1011.8
20260505080058 18 68 8.0 12.9 0.00 0.00 0.00 99 1012.0
20260505075547 18 90 6.4 12.9 0.00 0.00 0.00 99 1011.8
20260505075037 18 90 8.0 14.5 0.00 0.00 0.00 99 1012.1
20260505074527 18 90 11.3 14.5 0.00 0.00 0.00 99 1012.0
20260505074017 18 90 4.8 11.3 0.00 0.00 0.00 99 1011.9
20260505073507 18 90 6.4 11.3 0.00 0.00 0.00 99 1012.1
20260505072446 18 68 6.4 11.3 0.00 0.00 0.00 99 1012.1
20260505071427 18 90 4.8 9.7 0.00 0.00 0.00 99 1012.2
20260505070917 18 45 3.2 9.7 0.00 0.00 0.00 99 1012.2
20260505070405 18 45 3.2 0.0 0.00 0.00 0.00 99 1012.2
20260505070204 18 45 3.2 0.0 0.00 0.00 0.00 99 1012.2
20260505065801 18 68 3.2 11.3 0.00 0.00 0.00 99 1012.2
20260505065251 18 90 3.2 12.9 0.00 0.00 0.00 99 1012.2
20260505064742 18 45 3.2 12.9 0.00 0.00 0.00 99 1012.4
20260505064231 18 90 6.4 12.9 0.00 0.00 0.00 99 1012.0
20260505063721 18 90 8.0 12.9 0.00 0.00 0.00 99 1012.0
20260505063211 18 90 6.4 11.3 0.00 0.00 0.00 99 1012.1
20260505062701 18 90 6.4 11.3 0.00 0.00 0.00 99 1012.4
20260505062151 18 90 8.0 12.9 0.00 0.00 0.00 99 1012.2
20260505061641 18 90 9.7 12.9 0.00 0.00 0.00 99 1012.3
20260505061130 18 90 4.8 9.7 0.00 0.00 0.00 99 1012.3
20260505060620 18 90 4.8 9.7 0.00 0.00 0.00 99 1012.5
20260505060110 18 68 3.2 11.3 0.00 0.00 0.00 99 1012.3
20260505055600 18 45 3.2 11.3 0.00 0.00 0.00 99 1012.6
20260505055050 18 68 3.2 11.3 0.00 0.00 0.00 99 1012.2
20260505054539 18 90 3.2 14.5 0.00 0.00 0.00 99 1012.4
20260505054030 18 90 4.8 14.5 0.00 0.00 0.00 99 1012.4
20260505053520 18 68 9.7 14.5 0.00 0.00 0.00 99 1012.0
20260505053014 18 113 9.7 17.7 0.00 0.00 0.00 99 1012.0
20260505052459 18 90 8.0 17.7 0.00 0.00 0.00 99 1012.2
20260505051950 18 90 4.8 12.9 0.00 0.00 0.00 99 1012.0
20260505051440 18 90 6.4 12.9 0.00 0.00 0.00 99 1012.3
20260505050929 18 90 6.4 11.3 0.00 0.00 0.00 99 1012.1
20260505050419 18 68 3.2 11.3 0.00 0.00 0.00 99 1012.5
20260505041749 18 45 0.0 6.4 0.00 0.00 0.00 99 1012.9
20260505041238 19 23 3.2 6.4 0.00 0.00 0.00 99 1013.0
20260505040728 18 68 6.4 6.4 0.00 0.00 0.00 99 1012.8
20260505040218 19 68 4.8 9.7 0.00 0.00 0.00 99 1012.8
20260505035707 19 90 6.4 9.7 0.00 0.00 0.00 99 1012.6
20260505035157 19 45 4.8 9.7 0.00 0.00 0.00 99 1012.9
20260505034137 19 90 3.2 6.4 0.00 0.00 0.00 99 1012.8
20260505033627 19 45 0.0 6.4 0.00 0.00 0.00 99 1012.7
20260505032606 19 45 3.2 6.4 0.00 0.00 0.00 99 1012.7
20260505031546 19 45 1.6 6.4 0.00 0.00 0.00 99 1012.6
20260505031037 19 45 3.2 6.4 0.00 0.00 0.00 99 1012.4
20260505030527 19 90 3.2 9.7 0.00 0.00 0.00 99 1012.4
20260505025506 19 45 3.2 9.7 0.00 0.00 0.00 99 1012.3
20260505024956 19 68 3.2 9.7 0.00 0.00 0.00 99 1012.5
20260505024446 19 68 1.6 9.7 0.00 0.00 0.00 98 1012.4
20260505022915 19 68 3.2 6.4 0.00 0.00 0.00 98 1012.3
20260505022405 19 90 3.2 6.4 0.00 0.00 0.00 98 1012.2
20260505021855 19 23 1.6 9.7 0.00 0.00 0.00 98 1012.3
20260505020325 19 45 4.8 12.9 0.00 0.00 0.00 97 1012.2
20260505015815 19 23 3.2 11.3 0.00 0.00 0.00 97 1012.5
20260505014755 19 45 4.8 9.7 0.00 0.00 0.00 97 1012.4
20260505014245 19 90 3.2 9.7 0.00 0.00 0.00 97 1012.6
20260505013735 19 45 3.2 11.3 0.00 0.00 0.00 97 1012.4
20260505013224 19 23 6.4 11.3 0.00 0.00 0.00 97 1012.2
20260505012714 19 45 6.4 12.9 0.00 0.00 0.00 96 1012.4
20260505012204 19 23 6.4 12.9 0.00 0.00 0.00 96 1012.3
20260505011654 19 23 4.8 12.9 0.00 0.00 0.00 96 1012.6
20260505011144 19 23 6.4 11.3 0.00 0.00 0.00 95 1012.6
20260505010634 19 68 4.8 11.3 0.00 0.00 0.00 95 1012.6
20260505010124 19 68 3.2 11.3 0.00 0.00 0.00 95 1012.6
20260505005614 19 23 4.8 11.3 0.00 0.00 0.00 95 1012.7
20260505005104 20 23 3.2 12.9 0.00 0.00 0.00 94 1012.5
20260505004554 20 45 3.2 12.9 0.00 0.00 0.00 94 1012.7
20260505004043 20 113 4.8 9.7 0.00 0.00 0.00 94 1012.5
20260505003533 20 113 3.2 9.7 0.00 0.00 0.00 94 1012.4
20260505003027 20 113 3.2 9.7 0.00 0.00 0.00 94 1012.4
20260505002512 20 90 4.8 9.7 0.00 0.00 0.00 94 1012.5
20260505001453 20 90 6.4 12.9 0.00 0.00 0.00 94 1012.1